Hourly Data Report for October 07, 2016

All times are specified in Local Standard Time (LST). Add 1 hour to adjust for Daylight Saving Time where and when it is observed.

KUGLUKTUK A
NUNAVUT

67°49'00.000" N
115°08'38.000" W
22.60 m
2300903
71938
YCO

Download Data

Hourly Data (October 2016)
Hourly Data Report for October 7, 2016
Temp Definition
°C
Dew Point Temp Definition
°C
Rel Hum Definition
%
Wind Dir Definition
10's deg

Wind Spd Definition
km/h
Visibility Definition
km
Stn Press Definition
kPa
Hmdx Definition


Wind Chill Definition


Weather Definition


TIME
00:00 Legend Double Dagger -0.6 -2.8 85 27 23 16.1 102.35   -6 Snow
01:00 Legend Double Dagger -0.7 -2.6 87 26 19 16.1 102.37   -6 Snow
02:00 Legend Double Dagger -0.6 -2.0 90 26 15 16.1 102.39   -5 Snow
03:00 Legend Double Dagger 0.4 -1.1 90 32 14 16.1 102.43     Snow
04:00 Legend Double Dagger 0.7 -1.5 85 34 31 19.3 102.43     Snow
05:00 Legend Double Dagger 0.6 -1.3 87 34 29 16.1 102.47     Snow
06:00 Legend Double Dagger 0.6 -2.0 83 34 34 12.9 102.50     Snow
07:00 Legend Double Dagger 0.3 -1.8 86 33 28 16.1 102.51     Snow
08:00 Legend Double Dagger 0.5 -1.6 86 34 26 24.1 102.55     Snow
09:00 Legend Double Dagger 0.5 -1.6 86 33 22 24.1 102.58     Snow
10:00 Legend Double Dagger 0.6 -1.8 84 33 19 24.1 102.61     Snow
11:00 Legend Double Dagger 0.7 -2.0 82 31 16 24.1 102.63     Snow
12:00 Legend Double Dagger 0.2 -2.4 83 26 14 24.1 102.64     Snow
13:00 Legend Double Dagger 0.3 -1.9 85 26 17 24.1 102.66     Snow
14:00 Legend Double Dagger 0.6 -1.8 84 25 13 24.1 102.68     Cloudy
15:00 Legend Double Dagger 0.9 -2.0 81 28 10 24.1 102.70     LegendNANA
16:00 Legend Double Dagger 0.6 -2.1 82 26 10 24.1 102.71     LegendNANA
17:00 Legend Double Dagger 0.5 -2.6 80 28 8 24.1 102.71     Cloudy
18:00 Legend Double Dagger -0.2 -2.3 86 28 12 24.1 102.73   -4 LegendNANA
19:00 Legend Double Dagger -1.3 -2.7 90 22 12 24.1 102.71   -5 LegendNANA
20:00 Legend Double Dagger -1.2 -2.6 90 24 12 24.1 102.71   -5 Cloudy
21:00 Legend Double Dagger -0.8 -1.9 92 26 13 24.1 102.70   -5 Snow
22:00 Legend Double Dagger -0.9 -1.9 93 26 17 19.3 102.70   -6 Snow Pellets
23:00 Legend Double Dagger -0.9 -2.5 89 25 17 19.3 102.69   -6 Snow Pellets

Notes on Data Quality.

Legend

  • E = Estimated
  • M = Missing
  • NA = Not Available
  • ‡ = Partner data that is not subject to review by the National Climate Archives
Date modified: